#timestamp,LO_Frequency,Hit,StdDev 
1680865215.5,286047000.9,P
1680865235.4,286046998.3,P
1680865255.2,286046998.3,N
1680865275.0,286047000.2,N
1680865275.9,286047000.2,N
1680865295.8,286047000.1,N
1680865315.6,286047001.2,N
1680865335.5,286046998.3,N
1680865355.3,286046999.6,N
1680865375.1,286046996.6,Y
1680865395.9,286047001.0,P
1680865415.7,286047000.9,N
1680865435.5,286046998.1,P
1680865455.4,286047000.6,N
1680865475.2,286047000.8,N
1680865495.1,286047000.0,N
1680865496.0,286047000.0,N
1680865515.8,286047000.8,N
1680865535.6,286047000.0,N
1680865555.5,286047001.2,N
1680865575.3,286047000.7,N
1680865595.1,286046998.6,N
1680865615.9,286046998.1,N
1680865635.7,286046998.8,N
1680865655.6,286046998.5,N
1680865675.4,286047001.0,N
1680865695.2,286046998.3,N
1680865715.1,286046998.9,N
1680865716.0,286046998.9,N
1680865735.8,286047000.8,N
1680865755.6,286047000.6,N
1680865775.5,286047000.9,N
1680865795.3,286047002.7,N
1680865815.2,286047001.9,N
1680865835.9,286047004.3,Y
1680865855.7,286047002.1,P
1680865875.6,286047001.8,N
1680865895.4,286047001.3,N
1680865915.2,286047001.6,N
1680865935.1,286047001.8,N
1680865936.0,286047001.8,N
1680865955.8,286047002.3,Y
1680865975.7,286046998.3,P
1680865995.5,286046998.8,N
1680866015.3,286046999.1,N
1680866035.2,286046999.5,N
1680866055.0,286046999.0,N
1680866055.9,286046999.0,N
1680866075.8,286046998.5,N
1680866095.6,286046998.1,N
1680866115.4,286046998.5,N
1680866135.3,286046998.9,N
1680866155.1,286046998.8,N
1680866175.8,286046999.4,N
1680866195.7,286046996.9,Y
1680866215.5,286047001.0,P
1680866235.4,286046998.2,N
1680866255.2,286047001.1,N
1680866275.0,286046999.0,N
1680866275.9,286046999.0,N
1680866295.8,286046998.8,N
1680866315.6,286047001.2,N
1680866335.4,286046999.9,N
1680866355.3,286047000.0,N
1680866375.1,286047000.0,N
1680866395.9,286047000.5,N
1680866415.7,286047001.1,N
1680866435.5,286047001.1,N
1680866455.4,286046998.5,N
1680866475.2,286046998.6,N
1680866495.1,286046998.8,N
1680866496.0,286046998.8,N
1680866515.8,286046999.0,N
1680866535.6,286046999.1,N
1680866555.5,286046998.7,N
1680866575.3,286046998.9,N
1680866595.2,286046998.4,N
1680866615.9,286047001.1,N
1680866635.7,286047001.1,N
1680866655.6,286047000.3,N
1680866675.4,286046999.9,N
1680866695.2,286047000.1,N
1680866715.1,286047001.6,N
1680866716.0,286047001.6,N
1680866735.8,286047002.3,N
1680866755.7,286047000.1,N
1680866775.5,286047001.0,N
1680866795.3,286047001.1,N
1680866815.2,286047000.6,N
1680866835.0,286047000.7,N
1680866835.9,286047000.7,N
1680866855.8,286046999.4,N
1680866875.6,286046999.6,N
1680866895.5,286046996.9,N
1680866915.3,286046998.5,N
1680866935.1,286047000.8,N
1680866955.9,286047000.0,N
1680866975.7,286047000.6,N
1680866995.5,286047001.2,N
1680867015.4,286047000.2,N
1680867035.2,286047000.5,N
1680867055.1,286047000.2,N
1680867056.0,286047000.2,N
1680867075.8,286047000.6,N
1680867095.6,286047000.5,N
1680867115.5,286047000.8,N
1680867135.3,286047000.2,N
1680867155.1,286047000.4,N
1680867175.9,286047000.4,N
1680867195.7,286046999.9,N
1680867215.6,286046998.8,N
1680867235.4,286046998.3,N
1680867255.2,286046998.3,N
1680867275.1,286046998.9,N
1680867276.0,286046998.9,N
1680867295.8,286046998.1,N
1680867315.6,286047000.9,N
1680867335.5,286047000.8,N
1680867355.3,286046999.7,N
1680867375.2,286046999.8,N
1680867395.9,286047002.7,N
1680867415.7,286047002.5,N
1680867435.6,286047002.7,N
1680867455.4,286046999.8,N
1680867475.2,286047002.3,N
1680867495.1,286047002.3,N
1680867496.0,286047002.3,N
1680867515.8,286047001.5,N
1680867535.7,286047002.1,N
1680867555.5,286047002.6,N
1680867575.3,286047001.9,N
1680867595.2,286047000.2,N
1680867615.9,286047000.3,N
1680867635.7,286046998.8,N
1680867655.6,286046999.1,N
1680867675.4,286046999.1,N
1680867695.2,286046999.1,N
1680867715.1,286046996.6,N
1680867716.0,286046996.6,N
1680867735.8,286046996.8,N
1680867755.7,286046999.5,N
1680867775.5,286046996.6,N
1680867795.3,286046999.1,N
1680867815.2,286046997.4,N
1680867835.0,286046995.5,N
1680867835.9,286046995.5,N
1680867855.8,286046995.5,N
1680867875.6,286046995.1,N
1680867895.4,286046995.8,N
1680867915.3,286046996.0,N
1680867935.1,286046995.1,N
1680867955.8,286046997.5,N
1680867975.7,286046994.9,N
1680867995.5,286046995.3,N
1680868015.4,286046995.5,N
1680868035.2,286046995.4,N
1680868055.0,286046994.9,N
1680868055.9,286046994.9,N
1680868075.8,286046993.9,N
1680868095.6,286046993.4,N
1680868115.4,286046996.3,N
1680868135.3,286046993.5,Y
1680868155.1,286046997.3,P
1680868175.9,286046997.1,P
1680868195.7,286046997.3,P
1680868215.5,286046997.5,Y
1680868235.4,286046999.2,P
1680868255.2,286046999.0,N
1680868275.0,286046998.4,N
1680868275.9,286046998.4,N
1680868295.8,286046998.5,N
1680868315.6,286047000.6,N
1680868335.5,286047000.8,N
1680868355.3,286047000.7,N
1680868375.1,286046998.5,N
1680868395.9,286046998.8,N
1680868415.7,286046996.6,Y
1680868435.5,286046999.3,P
1680868455.4,286047000.3,N
1680868475.2,286046998.4,P
1680868495.1,286046999.3,N
1680868496.0,286046999.3,N
1680868515.8,286047000.9,N
1680868535.6,286047000.8,N
1680868555.5,286046998.3,N
1680868575.3,286046998.8,N
1680868595.1,286046996.5,Y
1680868615.9,286046998.2,P
1680868635.7,286046999.4,N
1680868655.6,286046999.4,N
1680868675.4,286046998.9,N
1680868695.2,286046998.5,Y
1680868715.1,286047000.1,P
1680868716.0,286047000.1,N
1680868735.8,286047002.7,P
1680868755.7,286047002.2,N
1680868775.5,286047002.3,N
1680868795.3,286047002.7,N
